Miscellaneous Local Product
Issued by NWS North Platte, NE

Home | Current Version | Previous Version | Graphics & Text | Print | Product List | Glossary On
Versions: 1 2 3 4 5 6 7 8 9 10 11 12 13 14 15 16 17 18 19 20 21 22 23 24 25 26 27 28 29 30 31 32 33 34 35 36 37 38 39 40 41 42 43 44 45 46 47 48 49 50
000
AXUS43 KLBF 241910
MISLBF


WESTERN AND NORTH CENTRAL NEBRASKA HOURLY WEATHER ROUNDUP
NATIONAL WEATHER SERVICE NORTH PLATTE NE
100 PM CST SAT FEB 24 2018

NOTE: "FAIR" INDICATES FEW OR NO CLOUDS BELOW 12,000 FEET WITH NO
SIGNIFICANT WEATHER AND/OR OBSTRUCTIONS TO VISIBILITY.

NOTE: STATIONS NOT REPORTING VARIABLES SUCH AS SKY/WEATHER OR
PRESSURE ARE PROVIDED BY RAWS AND APRS NETWORKS AND ARE NOT UNDER
NATIONAL WEATHER SERVICE QUALITY CONTROL.

...OBSERVATIONS IN AND NEAR THE EASTERN PANHANDLE OF NEBRASKA...

CITY           SKY/WX    TMP DP  RH WIND       PRES   REMARKS
PINE RIDGE     CLOUDY    25  13  60 W10       29.72F WCI  15
GORDON         MOCLDY    26  11  53 W16G24    29.69S WCI  13
CHADRON        SUNNY     24  11  57 W16       29.75F WCI  11
ALLIANCE       SUNNY     26  15  63 W22       29.71S WCI  12
SIDNEY         SUNNY     32   9  38 NW33G49   29.74F WCI  17
CRESCENT LAKE    N/A     29  10  44 NW23G35     N/A  WCI  15
$$

...OBSERVATIONS IN NORTHERN NEBRASKA AND FAR SOUTHERN SOUTH DAKOTA...

CITY           SKY/WX    TMP DP  RH WIND       PRES   REMARKS
WINNER         CLOUDY    20  13  74 S7        29.70F WCI  11
VALENTINE      CLOUDY    31  23  72 W10       29.65F WCI  22
AINSWORTH      PTSUNNY   26  21  82 SW14      29.66F WCI  14
O`NEILL        CLOUDY    21  20  96 S9        29.73F WCI  11
THEDFORD       SUNNY     32  23  69 W17       29.68F WCI  21
BROKEN BOW     LGT SNOW  26  23  88 SW10      29.72F FOG     WCI  16
ORD            CLOUDY    25  21  85 S9        29.75F WCI  15
ALBION         CLOUDY    23  21  93 S3        29.77F FOG
VALENTINE NWR    N/A     29  22  75 SW9         N/A  WCI  21
HALSEY           N/A     30  22  73 SW7         N/A  WCI  23
BUTTE            N/A     17  15  90 S8          N/A  WCI   7
CHAMBERS         N/A     35  19  52 W7          N/A  WCI  29
EWING            N/A     22  20  91 S6          N/A  WCI  15
$$

...OBSERVATIONS IN SOUTHWEST NEBRASKA AND FAR NORTHEAST COLORADO...

CITY           SKY/WX    TMP DP  RH WIND       PRES   REMARKS
WRAY           FAIR      36  10  35 NW36G44   29.77F WCI  21
HOLYOKE        FAIR      37  12  35 W28G38    29.76S WCI  25
IMPERIAL       SUNNY     34  14  43 NW25G35   29.75S WCI  21
OGALLALA       SUNNY     33  16  51 NW20G26   29.73F WCI  21
NORTH PLATTE   MOSUNNY   30  22  72 W14       29.73F WCI  19
MCCOOK         MOSUNNY   33  27  78 W17       29.76F WCI  22
LEXINGTON      LGT SNOW  30  27  88 W12       29.75F WCI  21
STAPLETON        N/A     28  23  81 CALM        N/A
$$

...OBSERVATIONS IN CENTRAL LINCOLN COUNTY AREA...

CITY           SKY/WX    TMP DP  RH WIND       PRES   REMARKS
N.P. AIRPORT   MOSUNNY   30  22  72 W14       29.73F WCI  19
N.P. DOWNTOWN    N/A     31  25  78 W3          N/A
N.P. SOUTHEAST   N/A     30  23  75 W6          N/A  WCI  24
N.P. HILLCREST   N/A     29  24  82 W8          N/A  WCI  21
$$

...OBSERVATIONS ACROSS THE ROCKIES AND WESTERN HIGH PLAINS...

CITY           SKY/WX    TMP DP  RH WIND       PRES   REMARKS
RAPID CITY     SUNNY     26  14  60 N28G36    29.68F WCI  10
SCOTTSBLUFF    SUNNY     30  11  45 W28G41    29.73F WCI  15
CHEYENNE       SUNNY     23   3  42 W28G43    29.70R WCI   6
DENVER         MOSUNNY   34   3  27 W28G38    29.74R WCI  21
BERTHOUD PASS  HVY SNOW  -8 -17  65 MISG      29.47F VSB<1/4
COPPER MTN     CLOUDY     5  -2  72 W23G32    29.66F WCI -17
MONARCH PASS   CLOUDY     1  -4  78 W52G58    29.78R WCI -30
ASPEN          PTSUNNY   18   8  65 N12       29.90S WCI   5
LARAMIE        CLOUDY    15   3  59 W24G35    29.74S WCI  -4
CASPER         MOSUNNY   17   8  67 SW22      29.77F WCI   0
$$

...OBSERVATIONS ACROSS THE NORTHERN PLAINS...

CITY           SKY/WX    TMP DP  RH WIND       PRES   REMARKS
BISMARCK       LGT SNOW  19  15  84 S13       29.76F FOG     WCI   6
FARGO          PTSUNNY   14   6  70 S12       29.94F WCI   0
PIERRE         LGT SNOW  15  12  88 E6        29.75F VSB 1   WCI   6
SIOUX FALLS    LGT SNOW  20  17  88 E12       29.77F VSB 1   WCI   8
$$

...OBSERVATIONS ACROSS THE CENTRAL AND SOUTHERN PLAINS...

CITY           SKY/WX    TMP DP  RH WIND       PRES   REMARKS
OMAHA          FRZ DRZL  29  27  92 CALM      29.80F FOG
GRAND ISLAND   CLOUDY    24  21  88 S3        29.79F FOG
KANSAS CITY    CLOUDY    40  39  97 S6        29.74F
WICHITA        CLOUDY    37  35  92 W8        29.82S WCI  31
DODGE CITY     CLOUDY    35  30  82 NW9       29.83F WCI  28
OKLAHOMA CITY  MOSUNNY   47  42  83 W10       29.84F
DALLAS         PTSUNNY   54  49  83 NW13      29.87S
AMARILLO       SUNNY     54   4  13 W29G38    29.85S
$$




USA.gov is the U.S. government's official web portal to all federal, state and local government web resources and services.